Time,TemperatureF,DewpointF,PressureIn,WindDirection,WindDirectionDegrees,WindSpeedMPH,WindSpeedGustMPH,Humidity,HourlyPrecipIn,Conditions,Clouds,dailyrainin,SoftwareType,DateUTC
2013-03-06 00:00:00,28.7,16.6,30.34,NNW,338,1.0,4.0,60,0.00,,---,0.00,VWS V14.01,2013-03-06 06:00:00,
2013-03-06 00:10:00,28.8,16.3,30.34,NNW,338,1.0,5.0,59,0.00,,---,0.00,VWS V14.01,2013-03-06 06:10:00,
2013-03-06 00:20:00,28.7,16.6,30.33,North,0,2.0,6.0,60,0.00,,---,0.00,VWS V14.01,2013-03-06 06:20:00,
2013-03-06 00:30:00,28.8,16.3,30.34,North,0,2.0,7.0,59,0.00,,---,0.00,VWS V14.01,2013-03-06 06:30:00,
2013-03-06 00:40:00,28.5,16.0,30.34,North,0,1.0,6.0,59,0.00,,---,0.00,VWS V14.01,2013-03-06 06:40:00,
2013-03-06 00:50:00,28.5,16.0,30.34,NNE,22,2.0,6.0,59,0.00,,---,0.00,VWS V14.01,2013-03-06 06:50:00,
2013-03-06 01:00:00,27.9,16.2,30.35,NNE,22,0.0,6.0,61,0.00,,---,0.00,VWS V14.01,2013-03-06 07:00:00,
2013-03-06 01:10:00,27.2,15.9,30.35,NNE,22,1.0,6.0,62,0.00,,---,0.00,VWS V14.01,2013-03-06 07:10:00,
2013-03-06 01:20:00,27.6,16.3,30.34,NNE,22,2.0,6.0,62,0.00,,---,0.00,VWS V14.01,2013-03-06 07:20:00,
2013-03-06 01:30:00,27.8,16.1,30.35,NNE,22,3.0,11.0,61,0.00,,---,0.00,VWS V14.01,2013-03-06 07:30:00,
2013-03-06 01:40:00,27.6,15.9,30.35,NNE,22,3.0,9.0,61,0.00,,---,0.00,VWS V14.01,2013-03-06 07:40:00,
2013-03-06 01:50:00,27.0,15.7,30.35,NNE,22,0.0,4.0,62,0.00,,---,0.00,VWS V14.01,2013-03-06 07:50:00,
2013-03-06 02:00:00,26.6,15.7,30.36,NNE,22,0.0,2.0,63,0.00,,---,0.00,VWS V14.01,2013-03-06 08:00:00,
2013-03-06 02:10:00,25.7,15.2,30.36,NNE,22,0.0,0.0,64,0.00,,---,0.00,VWS V14.01,2013-03-06 08:10:00,
2013-03-06 02:20:00,25.6,15.5,30.36,NNE,22,1.0,7.0,65,0.00,,---,0.00,VWS V14.01,2013-03-06 08:20:00,
2013-03-06 02:30:00,25.3,15.6,30.37,NNE,22,0.0,0.0,66,0.00,,---,0.00,VWS V14.01,2013-03-06 08:30:00,
2013-03-06 02:40:00,24.7,15.3,30.37,NNE,22,0.0,0.0,67,0.00,,---,0.00,VWS V14.01,2013-03-06 08:40:00,
2013-03-06 02:50:00,23.0,14.7,30.37,NNE,22,0.0,0.0,70,0.00,,---,0.00,VWS V14.01,2013-03-06 08:50:00,
2013-03-06 03:00:00,23.2,15.2,30.37,NNE,22,0.0,0.0,71,0.00,,---,0.00,VWS V14.01,2013-03-06 09:00:00,
2013-03-06 03:10:00,23.6,15.6,30.37,NNE,22,0.0,0.0,71,0.00,,---,0.00,VWS V14.01,2013-03-06 09:10:00,
2013-03-06 03:20:00,23.9,15.9,30.36,NNE,22,0.0,3.0,71,0.00,,---,0.00,VWS V14.01,2013-03-06 09:20:00,
2013-03-06 03:30:00,23.9,15.6,30.36,NNE,22,0.0,0.0,70,0.00,,---,0.00,VWS V14.01,2013-03-06 09:30:00,
2013-03-06 03:40:00,23.8,15.5,30.36,NNE,22,0.0,0.0,70,0.00,,---,0.00,VWS V14.01,2013-03-06 09:40:00,
2013-03-06 03:50:00,23.6,15.3,30.36,NNE,22,0.0,0.0,70,0.00,,---,0.00,VWS V14.01,2013-03-06 09:50:00,
2013-03-06 04:00:00,23.5,15.2,30.35,NNE,22,0.0,0.0,70,0.00,,---,0.00,VWS V14.01,2013-03-06 10:00:00,
2013-03-06 04:10:00,23.3,15.3,30.35,NNE,22,0.0,0.0,71,0.00,,---,0.00,VWS V14.01,2013-03-06 10:10:00,
2013-03-06 04:20:00,23.2,15.2,30.35,NNE,22,0.0,0.0,71,0.00,,---,0.00,VWS V14.01,2013-03-06 10:20:00,
2013-03-06 04:30:00,22.9,14.9,30.35,NNE,22,0.0,0.0,71,0.00,,---,0.00,VWS V14.01,2013-03-06 10:30:00,
2013-03-06 04:40:00,22.5,14.9,30.35,NNE,22,0.0,0.0,72,0.00,,---,0.00,VWS V14.01,2013-03-06 10:40:00,
2013-03-06 04:50:00,22.4,15.1,30.35,NNE,22,0.0,2.0,73,0.00,,---,0.00,VWS V14.01,2013-03-06 10:50:00,
2013-03-06 05:00:00,22.4,15.1,30.35,NNE,22,0.0,3.0,73,0.00,,---,0.00,VWS V14.01,2013-03-06 11:00:00,
2013-03-06 05:10:00,22.5,15.2,30.35,NNE,22,1.0,4.0,73,0.00,,---,0.00,VWS V14.01,2013-03-06 11:10:00,
2013-03-06 05:20:00,22.5,15.2,30.36,NNE,22,2.0,7.0,73,0.00,,---,0.00,VWS V14.01,2013-03-06 11:20:00,
2013-03-06 05:30:00,21.9,14.6,30.34,NNE,22,4.0,7.0,73,0.00,,---,0.00,VWS V14.01,2013-03-06 11:30:00,
2013-03-06 05:40:00,21.6,14.6,30.34,NE,45,7.0,13.0,74,0.00,,---,0.00,VWS V14.01,2013-03-06 11:40:00,
2013-03-06 05:50:00,21.0,14.3,30.33,NE,45,8.0,15.0,75,0.00,,---,0.00,VWS V14.01,2013-03-06 11:50:00,
2013-03-06 06:00:00,20.8,14.1,30.34,NE,45,0.0,2.0,75,0.00,,---,0.00,VWS V14.01,2013-03-06 12:00:00,
2013-03-06 06:10:00,20.5,14.1,30.34,NE,45,1.0,4.0,76,0.00,,---,0.00,VWS V14.01,2013-03-06 12:10:00,
2013-03-06 06:20:00,19.9,13.6,30.35,NE,45,0.0,2.0,76,0.00,,---,0.00,VWS V14.01,2013-03-06 12:20:00,
2013-03-06 06:30:00,19.7,13.7,30.35,NE,45,0.0,0.0,77,0.00,,---,0.00,VWS V14.01,2013-03-06 12:30:00,
2013-03-06 06:40:00,18.9,12.9,30.35,NE,45,0.0,0.0,77,0.00,,---,0.00,VWS V14.01,2013-03-06 12:40:00,
2013-03-06 06:50:00,18.9,13.2,30.36,NE,45,0.0,0.0,78,0.00,,---,0.00,VWS V14.01,2013-03-06 12:50:00,
2013-03-06 07:00:00,18.9,13.5,30.35,NE,45,1.0,5.0,79,0.00,,---,0.00,VWS V14.01,2013-03-06 13:00:00,
2013-03-06 07:10:00,19.2,13.8,30.35,NE,45,5.0,6.0,79,0.00,,---,0.00,VWS V14.01,2013-03-06 13:10:00,
2013-03-06 07:20:00,19.2,13.8,30.35,NE,45,2.0,5.0,79,0.00,,---,0.00,VWS V14.01,2013-03-06 13:20:00,
2013-03-06 07:30:00,19.5,14.1,30.35,NE,45,0.0,0.0,79,0.00,,---,0.00,VWS V14.01,2013-03-06 13:30:00,
2013-03-06 07:40:00,19.9,14.4,30.35,NE,45,0.0,4.0,79,0.00,,---,0.00,VWS V14.01,2013-03-06 13:40:00,
2013-03-06 07:50:00,20.5,15.3,30.35,NE,45,2.0,4.0,80,0.00,,---,0.00,VWS V14.01,2013-03-06 13:50:00,
2013-03-06 08:00:00,21.4,15.9,30.37,NE,45,0.0,1.0,79,0.00,,---,0.00,VWS V14.01,2013-03-06 14:00:00,
2013-03-06 08:10:00,22.2,16.7,30.37,NE,45,0.0,4.0,79,0.00,,---,0.00,VWS V14.01,2013-03-06 14:10:00,
2013-03-06 08:20:00,22.4,16.6,30.37,NE,45,0.0,3.0,78,0.00,,---,0.00,VWS V14.01,2013-03-06 14:20:00,
2013-03-06 08:30:00,22.4,16.0,30.37,NE,45,3.0,5.0,76,0.00,,---,0.00,VWS V14.01,2013-03-06 14:30:00,
2013-03-06 08:40:00,22.7,16.3,30.37,ENE,68,4.0,7.0,76,0.00,,---,0.00,VWS V14.01,2013-03-06 14:40:00,
2013-03-06 08:50:00,23.3,16.6,30.38,ENE,68,1.0,4.0,75,0.00,,---,0.00,VWS V14.01,2013-03-06 14:50:00,
2013-03-06 09:00:00,23.8,17.0,30.38,ENE,68,2.0,5.0,75,0.00,,---,0.00,VWS V14.01,2013-03-06 15:00:00,
2013-03-06 09:10:00,24.4,17.3,30.38,ENE,68,1.0,4.0,74,0.00,,---,0.00,VWS V14.01,2013-03-06 15:10:00,
2013-03-06 09:20:00,25.0,17.6,30.39,ENE,68,0.0,0.0,73,0.00,,---,0.00,VWS V14.01,2013-03-06 15:20:00,
2013-03-06 09:30:00,26.4,18.6,30.39,ENE,68,0.0,0.0,72,0.00,,---,0.00,VWS V14.01,2013-03-06 15:30:00,
2013-03-06 09:40:00,26.3,17.9,30.39,ENE,68,0.0,4.0,70,0.00,,---,0.00,VWS V14.01,2013-03-06 15:40:00,
2013-03-06 09:50:00,26.7,17.9,30.38,ENE,68,0.0,3.0,69,0.00,,---,0.00,VWS V14.01,2013-03-06 15:50:00,
2013-03-06 10:00:00,27.3,18.5,30.38,ENE,68,0.0,2.0,69,0.00,,---,0.00,VWS V14.01,2013-03-06 16:00:00,
2013-03-06 10:10:00,28.1,18.9,30.38,ENE,68,0.0,5.0,68,0.00,,---,0.00,VWS V14.01,2013-03-06 16:10:00,
2013-03-06 10:20:00,27.8,18.6,30.38,ENE,68,1.0,5.0,68,0.00,,---,0.00,VWS V14.01,2013-03-06 16:20:00,
2013-03-06 10:30:00,28.2,18.7,30.37,ENE,68,2.0,6.0,67,0.00,,---,0.00,VWS V14.01,2013-03-06 16:30:00,
2013-03-06 10:40:00,29.0,19.1,30.37,ENE,68,1.0,5.0,66,0.00,,---,0.00,VWS V14.01,2013-03-06 16:40:00,
2013-03-06 10:50:00,29.4,18.7,30.37,ENE,68,1.0,5.0,64,0.00,,---,0.00,VWS V14.01,2013-03-06 16:50:00,
2013-03-06 11:00:00,29.7,18.3,30.36,ENE,68,2.0,6.0,62,0.00,,---,0.00,VWS V14.01,2013-03-06 17:00:00,
2013-03-06 11:10:00,30.3,18.9,30.36,East,90,1.0,7.0,62,0.00,,---,0.00,VWS V14.01,2013-03-06 17:10:00,
2013-03-06 11:20:00,30.9,19.0,30.36,East,90,2.0,7.0,61,0.00,,---,0.00,VWS V14.01,2013-03-06 17:20:00,
2013-03-06 11:30:00,31.8,19.5,30.35,East,90,2.0,5.0,60,0.00,,---,0.00,VWS V14.01,2013-03-06 17:30:00,
2013-03-06 11:40:00,32.2,19.5,30.35,ESE,112,3.0,9.0,59,0.00,,---,0.00,VWS V14.01,2013-03-06 17:40:00,
2013-03-06 11:50:00,32.5,19.4,30.34,ESE,112,3.0,9.0,58,0.00,,---,0.00,VWS V14.01,2013-03-06 17:50:00,
2013-03-06 12:00:00,33.2,20.0,30.34,ESE,112,2.0,8.0,58,0.00,,---,0.00,VWS V14.01,2013-03-06 18:00:00,
2013-03-06 12:10:00,34.0,19.5,30.34,ESE,112,1.0,7.0,55,0.00,,---,0.00,VWS V14.01,2013-03-06 18:10:00,
2013-03-06 12:20:00,34.6,19.2,30.32,SE,135,3.0,11.0,53,0.00,,---,0.00,VWS V14.01,2013-03-06 18:20:00,
2013-03-06 12:30:00,34.9,19.1,30.32,SE,135,2.0,7.0,52,0.00,,---,0.00,VWS V14.01,2013-03-06 18:30:00,
2013-03-06 12:40:00,36.0,20.1,30.32,SE,135,3.0,9.0,52,0.00,,---,0.00,VWS V14.01,2013-03-06 18:40:00,
2013-03-06 12:50:00,36.0,20.5,30.30,SSE,158,4.0,10.0,53,0.00,,---,0.00,VWS V14.01,2013-03-06 18:50:00,
2013-03-06 13:00:00,36.5,20.1,30.29,SE,135,4.0,11.0,51,0.00,,---,0.00,VWS V14.01,2013-03-06 19:00:00,
2013-03-06 13:10:00,37.2,20.8,30.29,SE,135,4.0,11.0,51,0.00,,---,0.00,VWS V14.01,2013-03-06 19:10:00,
2013-03-06 13:20:00,38.2,20.7,30.28,SE,135,1.0,7.0,49,0.00,,---,0.00,VWS V14.01,2013-03-06 19:20:00,
2013-03-06 13:30:00,38.0,21.0,30.27,SSE,158,6.0,14.0,50,0.00,,---,0.00,VWS V14.01,2013-03-06 19:30:00,
2013-03-06 13:40:00,38.6,20.6,30.27,SSE,158,5.0,12.0,48,0.00,,---,0.00,VWS V14.01,2013-03-06 19:40:00,
2013-03-06 13:50:00,39.1,21.6,30.25,SE,135,5.0,12.0,49,0.00,,---,0.00,VWS V14.01,2013-03-06 19:50:00,
2013-03-06 14:00:00,39.3,21.3,30.25,SE,135,7.0,13.0,48,0.00,,---,0.00,VWS V14.01,2013-03-06 20:00:00,
2013-03-06 14:10:00,40.2,21.1,30.25,SE,135,6.0,12.0,46,0.00,,---,0.00,VWS V14.01,2013-03-06 20:10:00,
2013-03-06 14:20:00,40.8,21.1,30.24,SSE,158,6.0,14.0,45,0.00,,---,0.00,VWS V14.01,2013-03-06 20:20:00,
2013-03-06 14:30:00,40.6,20.9,30.24,SE,135,8.0,15.0,45,0.00,,---,0.00,VWS V14.01,2013-03-06 20:30:00,
2013-03-06 14:40:00,40.8,21.1,30.24,SE,135,10.0,16.0,45,0.00,,---,0.00,VWS V14.01,2013-03-06 20:40:00,
2013-03-06 14:50:00,41.1,21.9,30.22,SE,135,9.0,14.0,46,0.00,,---,0.00,VWS V14.01,2013-03-06 20:50:00,
2013-03-06 15:00:00,41.2,21.0,30.22,SE,135,9.0,14.0,44,0.00,,---,0.00,VWS V14.01,2013-03-06 21:00:00,
2013-03-06 15:10:00,42.2,22.4,30.22,SE,135,10.0,17.0,45,0.00,,---,0.00,VWS V14.01,2013-03-06 21:10:00,
2013-03-06 15:20:00,42.5,21.6,30.21,SE,135,9.0,16.0,43,0.00,,---,0.00,VWS V14.01,2013-03-06 21:20:00,
2013-03-06 15:30:00,42.3,21.4,30.20,SE,135,11.0,17.0,43,0.00,,---,0.00,VWS V14.01,2013-03-06 21:30:00,
2013-03-06 15:40:00,42.5,22.1,30.20,SE,135,11.0,16.0,44,0.00,,---,0.00,VWS V14.01,2013-03-06 21:40:00,
2013-03-06 15:50:00,42.5,22.1,30.19,SE,135,11.0,16.0,44,0.00,,---,0.00,VWS V14.01,2013-03-06 21:50:00,
2013-03-06 16:00:00,42.5,21.6,30.18,SE,135,11.0,16.0,43,0.00,,---,0.00,VWS V14.01,2013-03-06 22:00:00,
2013-03-06 16:10:00,42.5,21.6,30.18,SE,135,11.0,15.0,43,0.00,,---,0.00,VWS V14.01,2013-03-06 22:10:00,
2013-03-06 16:20:00,42.6,21.7,30.17,SE,135,12.0,17.0,43,0.00,,---,0.00,VWS V14.01,2013-03-06 22:20:00,
2013-03-06 16:30:00,42.6,22.2,30.17,SE,135,13.0,18.0,44,0.00,,---,0.00,VWS V14.01,2013-03-06 22:30:00,
2013-03-06 16:40:00,42.8,22.4,30.17,ESE,112,11.0,16.0,44,0.00,,---,0.00,VWS V14.01,2013-03-06 22:40:00,
2013-03-06 16:50:00,42.8,23.0,30.17,SE,135,11.0,17.0,45,0.00,,---,0.00,VWS V14.01,2013-03-06 22:50:00,
2013-03-06 17:00:00,42.8,22.4,30.16,SE,135,11.0,17.0,44,0.00,,---,0.00,VWS V14.01,2013-03-06 23:00:00,
2013-03-06 17:10:00,42.6,21.7,30.16,ESE,112,11.0,17.0,43,0.00,,---,0.00,VWS V14.01,2013-03-06 23:10:00,
2013-03-06 17:20:00,42.6,22.8,30.16,ESE,112,11.0,18.0,45,0.00,,---,0.00,VWS V14.01,2013-03-06 23:20:00,
2013-03-06 17:30:00,42.6,22.8,30.16,SE,135,12.0,16.0,45,0.00,,---,0.00,VWS V14.01,2013-03-06 23:30:00,
2013-03-06 17:40:00,42.5,23.2,30.16,ESE,112,10.0,14.0,46,0.00,,---,0.00,VWS V14.01,2013-03-06 23:40:00,
2013-03-06 17:50:00,42.2,22.9,30.15,SE,135,10.0,15.0,46,0.00,,---,0.00,VWS V14.01,2013-03-06 23:50:00,
2013-03-06 18:00:00,41.8,23.1,30.15,ESE,112,9.0,14.0,47,0.00,,---,0.00,VWS V14.01,2013-03-07 00:00:00,
2013-03-06 18:10:00,41.6,23.9,30.15,ESE,112,7.0,11.0,49,0.00,,---,0.00,VWS V14.01,2013-03-07 00:10:00,
2013-03-06 18:20:00,41.2,23.0,30.16,SE,135,7.0,12.0,48,0.00,,---,0.00,VWS V14.01,2013-03-07 00:20:00,
2013-03-06 18:30:00,40.6,23.0,30.16,SE,135,8.0,12.0,49,0.00,,---,0.00,VWS V14.01,2013-03-07 00:30:00,
2013-03-06 18:40:00,40.1,22.5,30.16,ESE,112,8.0,14.0,49,0.00,,---,0.00,VWS V14.01,2013-03-07 00:40:00,
2013-03-06 18:50:00,39.5,22.9,30.16,ESE,112,8.0,12.0,51,0.00,,---,0.00,VWS V14.01,2013-03-07 00:50:00,
2013-03-06 19:00:00,38.8,23.1,30.15,ESE,112,6.0,10.0,53,0.00,,---,0.00,VWS V14.01,2013-03-07 01:00:00,
2013-03-06 19:10:00,38.3,23.1,30.15,ESE,112,6.0,10.0,54,0.00,,---,0.00,VWS V14.01,2013-03-07 01:10:00,
2013-03-06 19:20:00,38.0,23.7,30.16,ESE,112,4.0,9.0,56,0.00,,---,0.00,VWS V14.01,2013-03-07 01:20:00,
2013-03-06 19:30:00,37.6,23.8,30.16,ESE,112,8.0,11.0,57,0.00,,---,0.00,VWS V14.01,2013-03-07 01:30:00,
2013-03-06 19:40:00,37.0,24.0,30.16,ESE,112,8.0,12.0,59,0.00,,---,0.00,VWS V14.01,2013-03-07 01:40:00,
2013-03-06 19:50:00,36.6,23.6,30.16,East,90,9.0,11.0,59,0.00,,---,0.00,VWS V14.01,2013-03-07 01:50:00,
2013-03-06 20:00:00,36.3,24.1,30.16,East,90,8.0,12.0,61,0.00,,---,0.00,VWS V14.01,2013-03-07 02:00:00,
2013-03-06 20:10:00,35.8,24.5,30.16,East,90,6.0,9.0,63,0.00,,---,0.00,VWS V14.01,2013-03-07 02:10:00,
2013-03-06 20:20:00,35.5,24.9,30.15,East,90,8.0,12.0,65,0.00,,---,0.00,VWS V14.01,2013-03-07 02:20:00,
2013-03-06 20:30:00,35.0,25.2,30.15,East,90,7.0,11.0,67,0.00,,---,0.00,VWS V14.01,2013-03-07 02:30:00,
2013-03-06 20:40:00,34.3,24.9,30.15,East,90,9.0,13.0,68,0.00,,---,0.00,VWS V14.01,2013-03-07 02:40:00,
2013-03-06 20:50:00,33.5,24.8,30.15,ESE,112,7.0,11.0,70,0.00,,---,0.00,VWS V14.01,2013-03-07 02:50:00,
2013-03-06 21:00:00,33.1,24.7,30.15,ESE,112,5.0,9.0,71,0.00,,---,0.00,VWS V14.01,2013-03-07 03:00:00,
2013-03-06 21:10:00,32.7,24.4,30.15,ESE,112,5.0,8.0,71,0.00,,---,0.00,VWS V14.01,2013-03-07 03:10:00,
2013-03-06 21:20:00,32.2,24.2,30.14,ESE,112,5.0,7.0,72,0.00,,---,0.00,VWS V14.01,2013-03-07 03:20:00,
2013-03-06 21:30:00,32.1,24.1,30.15,ESE,112,5.0,8.0,72,0.00,,---,0.00,VWS V14.01,2013-03-07 03:30:00,
2013-03-06 21:40:00,31.5,23.5,30.15,East,90,4.0,9.0,72,0.00,,---,0.00,VWS V14.01,2013-03-07 03:40:00,
2013-03-06 21:50:00,31.0,23.4,30.14,East,90,6.0,10.0,73,0.00,,---,0.00,VWS V14.01,2013-03-07 03:50:00,
2013-03-06 22:00:00,30.6,23.3,30.14,East,90,5.0,7.0,74,0.00,,---,0.00,VWS V14.01,2013-03-07 04:00:00,
2013-03-06 22:10:00,30.4,23.4,30.14,East,90,5.0,7.0,75,0.00,,---,0.00,VWS V14.01,2013-03-07 04:10:00,
2013-03-06 22:20:00,30.4,23.4,30.15,East,90,6.0,7.0,75,0.00,,---,0.00,VWS V14.01,2013-03-07 04:20:00,
2013-03-06 22:30:00,30.6,23.6,30.14,East,90,6.0,7.0,75,0.00,,---,0.00,VWS V14.01,2013-03-07 04:30:00,
2013-03-06 22:40:00,30.3,23.7,30.14,East,90,6.0,9.0,76,0.00,,---,0.00,VWS V14.01,2013-03-07 04:40:00,
2013-03-06 22:50:00,30.1,23.5,30.13,East,90,3.0,7.0,76,0.00,,---,0.00,VWS V14.01,2013-03-07 04:50:00,
2013-03-06 23:00:00,30.3,23.7,30.13,East,90,3.0,10.0,76,0.00,,---,0.00,VWS V14.01,2013-03-07 05:00:00,
2013-03-06 23:10:00,30.6,24.0,30.13,ESE,112,4.0,10.0,76,0.00,,---,0.00,VWS V14.01,2013-03-07 05:10:00,
2013-03-06 23:20:00,30.7,24.0,30.13,ESE,112,6.0,10.0,76,0.00,,---,0.00,VWS V14.01,2013-03-07 05:20:00,
2013-03-06 23:30:00,30.6,24.3,30.13,ESE,112,3.0,7.0,77,0.00,,---,0.00,VWS V14.01,2013-03-07 05:30:00,
2013-03-06 23:40:00,30.4,24.1,30.13,ESE,112,5.0,8.0,77,0.00,,---,0.00,VWS V14.01,2013-03-07 05:40:00,
2013-03-06 23:50:00,30.3,24.0,30.13,ESE,112,2.0,7.0,77,0.00,,---,0.00,VWS V14.01,2013-03-07 05:50:00,